Wetterdaten: aktuell Sonntag, 20.10.2019 16:25
Datum Zeit Temp. A. Temp. A. min Feuchte A. Luftdruck Regen Wind Richtung Richtung Sonnenschein Solar Taupunkt Windchill Windben
20.10.2019 16:25 20,2 C 20,2 C 78 % 1013,9 hPa 0,0 l/m 6,0 km/h (2 Bft) W-NW 292 0 min 0 W/m 16,2 C 20,2 C 14,5 km/h (3 Bft)
20.10.2019 16:20 20,2 C 20,2 C 78 % 1013,9 hPa 0,0 l/m 8,1 km/h (2 Bft) NW 306 0 min 0 W/m 16,2 C 20,2 C 14,5 km/h (3 Bft)
20.10.2019 16:15 20,2 C 20,2 C 78 % 1013,9 hPa 0,0 l/m 4,8 km/h (1 Bft) S 169 0 min 0 W/m 16,2 C 20,2 C 12,9 km/h (3 Bft)
20.10.2019 16:10 20,3 C 20,3 C 77 % 1014,0 hPa 0,0 l/m 5,8 km/h (2 Bft) NW 316 0 min 0 W/m 16,1 C 20,3 C 12,9 km/h (3 Bft)
20.10.2019 16:05 20,4 C 20,4 C 77 % 1013,9 hPa 0,0 l/m 6,1 km/h (2 Bft) SW 231 0 min 0 W/m 16,2 C 20,4 C 11,3 km/h (2 Bft)
20.10.2019 16:00 20,4 C 20,4 C 77 % 1013,9 hPa 0,0 l/m 7,0 km/h (2 Bft) W-NW 285 0 min 0 W/m 16,2 C 20,4 C 12,9 km/h (3 Bft)
20.10.2019 15:55 20,5 C 20,4 C 78 % 1013,9 hPa 0,0 l/m 6,5 km/h (2 Bft) W 263 0 min 0 W/m 16,5 C 20,5 C 12,9 km/h (3 Bft)
20.10.2019 15:50 20,5 C 20,5 C 77 % 1013,9 hPa 0,0 l/m 5,2 km/h (1 Bft) W-NW 296 0 min 0 W/m 16,3 C 20,5 C 11,3 km/h (2 Bft)
20.10.2019 15:45 20,6 C 20,6 C 77 % 1013,7 hPa 0,0 l/m 5,7 km/h (1 Bft) NW 317 0 min 0 W/m 16,4 C 20,6 C 11,3 km/h (2 Bft)
20.10.2019 15:40 20,6 C 20,6 C 77 % 1013,8 hPa 0,0 l/m 5,0 km/h (1 Bft) NW 321 0 min 0 W/m 16,4 C 20,6 C 8,0 km/h (2 Bft)
20.10.2019 15:35 20,6 C 20,6 C 77 % 1013,9 hPa 0,0 l/m 4,7 km/h (1 Bft) W 278 0 min 0 W/m 16,4 C 20,6 C 9,7 km/h (2 Bft)
20.10.2019 15:30 20,6 C 20,6 C 77 % 1013,9 hPa 0,0 l/m 4,9 km/h (1 Bft) NW 326 0 min 0 W/m 16,4 C 20,6 C 9,7 km/h (2 Bft)
20.10.2019 15:25 20,6 C 20,6 C 77 % 1013,9 hPa 0,0 l/m 5,4 km/h (1 Bft) N-NW 329 0 min 0 W/m 16,4 C 20,6 C 8,0 km/h (2 Bft)
20.10.2019 15:20 20,6 C 20,4 C 77 % 1013,8 hPa 0,0 l/m 5,7 km/h (1 Bft) N 355 0 min 0 W/m 16,4 C 20,6 C 9,7 km/h (2 Bft)
20.10.2019 15:15 20,4 C 20,4 C 76 % 1013,9 hPa 0,0 l/m 5,6 km/h (1 Bft) NW 324 0 min 0 W/m 16,0 C 20,4 C 8,0 km/h (2 Bft)
20.10.2019 15:10 20,4 C 20,3 C 77 % 1013,9 hPa 0,0 l/m 3,8 km/h (1 Bft) N-NO 17 0 min 0 W/m 16,2 C 20,4 C 11,3 km/h (2 Bft)
20.10.2019 15:05 20,3 C 20,2 C 78 % 1013,8 hPa 0,0 l/m 3,4 km/h (1 Bft) NW 306 0 min 0 W/m 16,3 C 20,3 C 9,7 km/h (2 Bft)
20.10.2019 15:00 20,2 C 20,1 C 78 % 1013,8 hPa 0,0 l/m 2,8 km/h (1 Bft) W 269 0 min 0 W/m 16,2 C 20,2 C 6,4 km/h (2 Bft)
20.10.2019 14:55 20,1 C 20,1 C 78 % 1013,8 hPa 0,0 l/m 4,2 km/h (1 Bft) NW 322 0 min 0 W/m 16,1 C 20,1 C 6,4 km/h (2 Bft)
20.10.2019 14:50 20,1 C 20,0 C 76 % 1013,9 hPa 0,0 l/m 2,7 km/h (1 Bft) N 5 0 min 0 W/m 15,7 C 20,1 C 6,4 km/h (2 Bft)
20.10.2019 14:45 20,1 C 20,0 C 76 % 1013,8 hPa 0,0 l/m 3,4 km/h (1 Bft) W 273 0 min 0 W/m 15,7 C 20,1 C 6,4 km/h (2 Bft)
20.10.2019 14:40 20,0 C 20,0 C 77 % 1013,8 hPa 0,0 l/m 4,3 km/h (1 Bft) NW 315 0 min 0 W/m 15,8 C 20,0 C 8,0 km/h (2 Bft)
20.10.2019 14:35 20,0 C 19,9 C 77 % 1013,9 hPa 0,0 l/m 3,5 km/h (1 Bft) W-NW 292 0 min 0 W/m 15,8 C 20,0 C 6,4 km/h (2 Bft)
20.10.2019 14:30 19,9 C 19,9 C 77 % 1013,7 hPa 0,0 l/m 4,4 km/h (1 Bft) W 276 0 min 0 W/m 15,7 C 19,9 C 8,0 km/h (2 Bft)
20.10.2019 14:25 19,9 C 19,9 C 76 % 1013,7 hPa 0,0 l/m 5,3 km/h (1 Bft) W-NW 296 0 min 0 W/m 15,5 C 19,9 C 9,7 km/h (2 Bft)
20.10.2019 14:20 19,9 C 19,9 C 76 % 1013,7 hPa 0,0 l/m 4,0 km/h (1 Bft) W-NW 298 0 min 0 W/m 15,5 C 19,9 C 6,4 km/h (2 Bft)
20.10.2019 14:15 19,9 C 19,8 C 76 % 1013,8 hPa 0,0 l/m 4,7 km/h (1 Bft) NW 319 0 min 0 W/m 15,5 C 19,9 C 8,0 km/h (2 Bft)
20.10.2019 14:10 19,8 C 19,7 C 77 % 1013,9 hPa 0,0 l/m 6,7 km/h (2 Bft) N-NW 344 0 min 0 W/m 15,6 C 19,8 C 12,9 km/h (3 Bft)
20.10.2019 14:05 19,7 C 19,5 C 77 % 1013,9 hPa 0,0 l/m 5,2 km/h (1 Bft) NW 317 0 min 0 W/m 15,5 C 19,7 C 8,0 km/h (2 Bft)
20.10.2019 14:00 19,5 C 19,3 C 77 % 1014,1 hPa 0,0 l/m 4,6 km/h (1 Bft) W-NW 286 0 min 0 W/m 15,4 C 19,5 C 9,7 km/h (2 Bft)
20.10.2019 13:55 19,3 C 19,1 C 77 % 1014,2 hPa 0,0 l/m 2,0 km/h (1 Bft) N 5 0 min 0 W/m 15,2 C 19,3 C 4,8 km/h (1 Bft)
20.10.2019 13:50 19,1 C 19,0 C 77 % 1014,2 hPa 0,0 l/m 2,2 km/h (1 Bft) O-SO 103 0 min 0 W/m 15,0 C 19,1 C 6,4 km/h (2 Bft)
20.10.2019 13:45 19,0 C 18,9 C 78 % 1014,2 hPa 0,0 l/m 2,1 km/h (1 Bft) W 271 0 min 0 W/m 15,1 C 19,0 C 4,8 km/h (1 Bft)
20.10.2019 13:40 18,9 C 18,7 C 77 % 1014,1 hPa 0,0 l/m 2,3 km/h (1 Bft) W 273 0 min 0 W/m 14,8 C 18,9 C 4,8 km/h (1 Bft)
20.10.2019 13:35 18,7 C 18,6 C 77 % 1014,3 hPa 0,0 l/m 2,4 km/h (1 Bft) SW 218 0 min 0 W/m 14,6 C 18,7 C 4,8 km/h (1 Bft)
20.10.2019 13:30 18,6 C 18,6 C 79 % 1014,4 hPa 0,0 l/m 3,0 km/h (1 Bft) SW 219 0 min 0 W/m 14,9 C 18,6 C 4,8 km/h (1 Bft)
20.10.2019 13:25 18,6 C 18,5 C 80 % 1014,4 hPa 0,0 l/m 2,4 km/h (1 Bft) S 177 0 min 0 W/m 15,1 C 18,6 C 4,8 km/h (1 Bft)
20.10.2019 13:20 18,5 C 18,4 C 79 % 1014,3 hPa 0,0 l/m 3,3 km/h (1 Bft) S 173 0 min 0 W/m 14,8 C 18,5 C 8,0 km/h (2 Bft)
20.10.2019 13:15 18,4 C 18,3 C 80 % 1014,4 hPa 0,0 l/m 2,5 km/h (1 Bft) S-SW 208 0 min 0 W/m 14,9 C 18,4 C 4,8 km/h (1 Bft)
20.10.2019 13:10 18,3 C 18,3 C 80 % 1014,3 hPa 0,0 l/m 3,1 km/h (1 Bft) SW 219 0 min 0 W/m 14,8 C 18,3 C 6,4 km/h (2 Bft)
20.10.2019 13:05 18,3 C 18,1 C 81 % 1014,5 hPa 0,0 l/m 4,6 km/h (1 Bft) S 189 0 min 0 W/m 15,0 C 18,3 C 8,0 km/h (2 Bft)
20.10.2019 13:00 18,1 C 17,9 C 80 % 1014,4 hPa 0,0 l/m 1,4 km/h (1 Bft) SW 215 0 min 0 W/m 14,6 C 18,1 C 3,2 km/h (1 Bft)
20.10.2019 12:55 17,9 C 17,6 C 82 % 1014,5 hPa 0,0 l/m 4,3 km/h (1 Bft) SW 217 0 min 0 W/m 14,8 C 17,9 C 8,0 km/h (2 Bft)
20.10.2019 12:50 17,6 C 17,2 C 85 % 1014,6 hPa 0,0 l/m 3,2 km/h (1 Bft) SW 217 0 min 0 W/m 15,0 C 17,6 C 8,0 km/h (2 Bft)
20.10.2019 12:45 17,2 C 16,9 C 87 % 1014,6 hPa 0,0 l/m 1,7 km/h (1 Bft) S 186 0 min 0 W/m 15,0 C 17,2 C 6,4 km/h (2 Bft)
20.10.2019 12:40 16,9 C 16,7 C 86 % 1014,6 hPa 0,0 l/m 1,1 km/h (1 Bft) N-NO 19 0 min 0 W/m 14,5 C 16,9 C 3,2 km/h (1 Bft)
20.10.2019 12:35 16,7 C 16,6 C 87 % 1014,7 hPa 0,0 l/m 1,4 km/h (1 Bft) N-NO 17 0 min 0 W/m 14,5 C 16,7 C 3,2 km/h (1 Bft)
20.10.2019 12:30 16,6 C 16,4 C 88 % 1014,7 hPa 0,0 l/m 0,7 km/h (0 Bft) NO 36 0 min 0 W/m 14,6 C 16,6 C 3,2 km/h (1 Bft)
20.10.2019 12:25 16,4 C 16,3 C 89 % 1014,7 hPa 0,0 l/m 2,2 km/h (1 Bft) NO 35 0 min 0 W/m 14,6 C 16,4 C 4,8 km/h (1 Bft)
20.10.2019 12:20 16,3 C 16,2 C 91 % 1014,6 hPa 0,0 l/m 1,7 km/h (1 Bft) N 11 0 min 0 W/m 14,8 C 16,3 C 3,2 km/h (1 Bft)
20.10.2019 12:15 16,2 C 15,9 C 92 % 1014,7 hPa 0,0 l/m 1,0 km/h (0 Bft) O-NO 67 0 min 0 W/m 14,9 C 16,2 C 3,2 km/h (1 Bft)
20.10.2019 12:10 15,9 C 15,9 C 92 % 1014,7 hPa 0,0 l/m 2,8 km/h (1 Bft) O-NO 69 0 min 0 W/m 14,6 C 15,9 C 6,4 km/h (2 Bft)
20.10.2019 12:05 15,9 C 15,7 C 93 % 1014,9 hPa 0,0 l/m 2,9 km/h (1 Bft) NO 39 0 min 0 W/m 14,8 C 15,9 C 8,0 km/h (2 Bft)
20.10.2019 12:00 15,7 C 15,3 C 94 % 1015,1 hPa 0,0 l/m 1,9 km/h (1 Bft) S 171 0 min 0 W/m 14,7 C 15,7 C 6,4 km/h (2 Bft)
20.10.2019 11:55 15,3 C 15,1 C 94 % 1015,1 hPa 0,0 l/m 1,4 km/h (1 Bft) O-SO 123 0 min 0 W/m 14,3 C 15,3 C 4,8 km/h (1 Bft)
20.10.2019 11:50 15,1 C 14,7 C 95 % 1015,2 hPa 0,0 l/m 3,6 km/h (1 Bft) S 171 0 min 0 W/m 14,3 C 15,1 C 6,4 km/h (2 Bft)
20.10.2019 11:45 14,7 C 14,4 C 95 % 1015,4 hPa 0,0 l/m 3,9 km/h (1 Bft) S 169 0 min 0 W/m 13,9 C 14,7 C 8,0 km/h (2 Bft)
20.10.2019 11:40 14,4 C 14,2 C 95 % 1015,5 hPa 0,0 l/m 3,6 km/h (1 Bft) SO 143 0 min 0 W/m 13,6 C 14,4 C 8,0 km/h (2 Bft)
20.10.2019 11:35 14,2 C 14,0 C 95 % 1015,7 hPa 0,0 l/m 3,4 km/h (1 Bft) S 186 0 min 0 W/m 13,4 C 14,2 C 8,0 km/h (2 Bft)
20.10.2019 11:30 14,0 C 13,9 C 96 % 1015,6 hPa 0,0 l/m 3,3 km/h (1 Bft) S-SO 154 0 min 0 W/m 13,4 C 14,0 C 6,4 km/h (2 Bft)
20.10.2019 11:25 13,9 C 13,7 C 96 % 1015,8 hPa 0,0 l/m 4,4 km/h (1 Bft) SO 144 0 min 0 W/m 13,3 C 13,9 C 9,7 km/h (2 Bft)
20.10.2019 11:20 13,7 C 13,6 C 96 % 1015,9 hPa 0,0 l/m 2,7 km/h (1 Bft) S 190 0 min 0 W/m 13,1 C 13,7 C 6,4 km/h (2 Bft)
20.10.2019 11:15 13,6 C 13,4 C 96 % 1015,9 hPa 0,0 l/m 3,4 km/h (1 Bft) S-SW 196 0 min 0 W/m 13,0 C 13,6 C 8,0 km/h (2 Bft)
20.10.2019 11:10 13,4 C 13,2 C 96 % 1016,1 hPa 0,0 l/m 3,0 km/h (1 Bft) S-SW 211 0 min 0 W/m 12,8 C 13,4 C 6,4 km/h (2 Bft)
20.10.2019 11:05 13,2 C 13,1 C 96 % 1016,2 hPa 0,0 l/m 3,9 km/h (1 Bft) S-SW 210 0 min 0 W/m 12,6 C 13,2 C 8,0 km/h (2 Bft)
20.10.2019 11:00 13,1 C 12,9 C 96 % 1016,1 hPa 0,0 l/m 3,9 km/h (1 Bft) SW 236 0 min 0 W/m 12,5 C 13,1 C 8,0 km/h (2 Bft)
20.10.2019 10:55 12,9 C 12,8 C 96 % 1016,1 hPa 0,0 l/m 2,5 km/h (1 Bft) S 178 0 min 0 W/m 12,3 C 12,9 C 4,8 km/h (1 Bft)
20.10.2019 10:50 12,8 C 12,7 C 96 % 1016,1 hPa 0,0 l/m 2,7 km/h (1 Bft) S 176 0 min 0 W/m 12,2 C 12,8 C 4,8 km/h (1 Bft)
20.10.2019 10:45 12,7 C 12,6 C 96 % 1016,1 hPa 0,0 l/m 3,1 km/h (1 Bft) S 179 0 min 0 W/m 12,1 C 12,7 C 4,8 km/h (1 Bft)
20.10.2019 10:40 12,6 C 12,6 C 96 % 1016,2 hPa 0,0 l/m 1,0 km/h (0 Bft) S 184 0 min 0 W/m 12,0 C 12,6 C 4,8 km/h (1 Bft)
20.10.2019 10:35 12,6 C 12,5 C 96 % 1016,2 hPa 0,0 l/m 3,2 km/h (1 Bft) SO 145 0 min 0 W/m 12,0 C 12,6 C 6,4 km/h (2 Bft)
20.10.2019 10:30 12,5 C 12,5 C 96 % 1016,2 hPa 0,0 l/m 0,9 km/h (0 Bft) N 5 0 min 0 W/m 11,9 C 12,5 C 1,6 km/h (1 Bft)
20.10.2019 10:25 12,5 C 12,4 C 96 % 1016,3 hPa 0,0 l/m 0,7 km/h (0 Bft) N 360 0 min 0 W/m 11,9 C 12,5 C 1,6 km/h (1 Bft)
20.10.2019 10:20 12,4 C 12,4 C 96 % 1016,4 hPa 0,0 l/m 0,5 km/h (0 Bft) N-NO 15 0 min 0 W/m 11,8 C 12,4 C 1,6 km/h (1 Bft)
20.10.2019 10:15 12,4 C 12,4 C 96 % 1016,4 hPa 0,0 l/m 0,9 km/h (0 Bft) N-NO 15 0 min 0 W/m 11,8 C 12,4 C 3,2 km/h (1 Bft)
20.10.2019 10:10 12,4 C 12,4 C 96 % 1016,4 hPa 0,0 l/m 1,2 km/h (1 Bft) N-NO 15 0 min 0 W/m 11,8 C 12,4 C 3,2 km/h (1 Bft)
20.10.2019 10:05 12,4 C 12,4 C 96 % 1016,5 hPa 0,0 l/m 1,1 km/h (1 Bft) N-NO 15 0 min 0 W/m 11,8 C 12,4 C 3,2 km/h (1 Bft)
20.10.2019 10:00 12,4 C 12,3 C 96 % 1016,4 hPa 0,0 l/m 0,3 km/h (0 Bft) N-NO 15 0 min 0 W/m 11,8 C 12,4 C 3,2 km/h (1 Bft)
20.10.2019 09:55 12,3 C 12,2 C 96 % 1016,4 hPa 0,0 l/m 0,0 km/h (0 Bft) N-NO 15 0 min 0 W/m 11,7 C 12,3 C 0,0 km/h (0 Bft)
20.10.2019 09:50 12,2 C 12,1 C 96 % 1016,4 hPa 0,0 l/m 0,0 km/h (0 Bft) N-NO 15 0 min 0 W/m 11,6 C 12,2 C 0,0 km/h (0 Bft)
20.10.2019 09:45 12,1 C 11,9 C 96 % 1016,4 hPa 0,0 l/m 0,3 km/h (0 Bft) N-NO 15 0 min 0 W/m 11,5 C 12,1 C 1,6 km/h (1 Bft)
20.10.2019 09:40 11,9 C 11,8 C 96 % 1016,4 hPa 0,0 l/m 0,0 km/h (0 Bft) N-NO 15 0 min 0 W/m 11,3 C 11,9 C 0,0 km/h (0 Bft)
20.10.2019 09:35 11,8 C 11,7 C 96 % 1016,4 hPa 0,0 l/m 0,5 km/h (0 Bft) N-NO 15 0 min 0 W/m 11,2 C 11,8 C 1,6 km/h (1 Bft)
20.10.2019 09:30 11,7 C 11,6 C 96 % 1016,4 hPa 0,0 l/m 0,8 km/h (0 Bft) N-NO 15 0 min 0 W/m 11,1 C 11,7 C 3,2 km/h (1 Bft)
20.10.2019 09:25 11,6 C 11,5 C 96 % 1016,2 hPa 0,0 l/m 0,4 km/h (0 Bft) N-NO 15 0 min 0 W/m 11,0 C 11,6 C 1,6 km/h (1 Bft)
20.10.2019 09:20 11,5 C 11,4 C 96 % 1016,3 hPa 0,0 l/m 0,0 km/h (0 Bft) N-NO 15 0 min 0 W/m 10,9 C 11,5 C 0,0 km/h (0 Bft)
20.10.2019 09:15 11,4 C 11,3 C 96 % 1016,4 hPa 0,0 l/m 0,0 km/h (0 Bft) N-NO 15 0 min 0 W/m 10,8 C 11,4 C 1,6 km/h (1 Bft)
20.10.2019 09:10 11,3 C 11,2 C 96 % 1016,4 hPa 0,0 l/m 0,3 km/h (0 Bft) N-NO 15 0 min 0 W/m 10,7 C 11,3 C 3,2 km/h (1 Bft)
20.10.2019 09:05 11,2 C 11,2 C 96 % 1016,3 hPa 0,0 l/m 0,7 km/h (0 Bft) N-NO 15 0 min 0 W/m 10,6 C 11,2 C 3,2 km/h (1 Bft)
20.10.2019 09:00 11,2 C 11,2 C 96 % 1016,2 hPa 0,0 l/m 2,1 km/h (1 Bft) N 11 0 min 0 W/m 10,6 C 11,2 C 3,2 km/h (1 Bft)
20.10.2019 08:55 11,2 C 11,2 C 96 % 1016,2 hPa 0,0 l/m 1,8 km/h (1 Bft) N-NO 30 0 min 0 W/m 10,6 C 11,2 C 4,8 km/h (1 Bft)
20.10.2019 08:50 11,2 C 11,2 C 95 % 1016,3 hPa 0,0 l/m 0,7 km/h (0 Bft) NO 46 0 min 0 W/m 10,4 C 11,2 C 3,2 km/h (1 Bft)
20.10.2019 08:45 11,2 C 11,2 C 95 % 1016,4 hPa 0,0 l/m 0,0 km/h (0 Bft) NO 44 0 min 0 W/m 10,4 C 11,2 C 0,0 km/h (0 Bft)
20.10.2019 08:40 11,2 C 11,2 C 95 % 1016,3 hPa 0,0 l/m 0,0 km/h (0 Bft) NO 44 0 min 0 W/m 10,4 C 11,2 C 0,0 km/h (0 Bft)
20.10.2019 08:35 11,2 C 11,2 C 95 % 1016,3 hPa 0,0 l/m 0,0 km/h (0 Bft) NO 42 0 min 0 W/m 10,4 C 11,2 C 0,0 km/h (0 Bft)
20.10.2019 08:30 11,2 C 11,1 C 95 % 1016,3 hPa 0,0 l/m 0,0 km/h (0 Bft) NO 42 0 min 0 W/m 10,4 C 11,2 C 1,6 km/h (1 Bft)
20.10.2019 08:25 11,2 C 11,1 C 95 % 1016,2 hPa 0,0 l/m 0,0 km/h (0 Bft) NO 42 0 min 0 W/m 10,4 C 11,2 C 0,0 km/h (0 Bft)
20.10.2019 08:20 11,2 C 11,1 C 95 % 1016,2 hPa 0,0 l/m 0,9 km/h (0 Bft) NO 42 0 min 0 W/m 10,4 C 11,2 C 3,2 km/h (1 Bft)
20.10.2019 08:15 11,1 C 11,1 C 95 % 1016,2 hPa 0,0 l/m 1,3 km/h (1 Bft) NO 42 0 min 0 W/m 10,3 C 11,1 C 3,2 km/h (1 Bft)
20.10.2019 08:10 11,1 C 11,1 C 95 % 1016,3 hPa 0,0 l/m 0,2 km/h (0 Bft) NO 42 0 min 0 W/m 10,3 C 11,1 C 1,6 km/h (1 Bft)
20.10.2019 08:05 11,1 C 11,1 C 95 % 1016,2 hPa 0,0 l/m 1,8 km/h (1 Bft) NO 42 0 min 0 W/m 10,3 C 11,1 C 3,2 km/h (1 Bft)
20.10.2019 08:00 11,2 C 11,2 C 95 % 1016,3 hPa 0,0 l/m 0,5 km/h (0 Bft) O-NO 67 0 min 0 W/m 10,4 C 11,2 C 3,2 km/h (1 Bft)
20.10.2019 07:55 11,2 C 11,2 C 95 % 1016,0 hPa 0,0 l/m 0,2 km/h (0 Bft) O-NO 70 0 min 0 W/m 10,4 C 11,2 C 3,2 km/h (1 Bft)
20.10.2019 07:50 11,2 C 11,2 C 95 % 1015,9 hPa 0,0 l/m 2,9 km/h (1 Bft) O-NO 70 0 min 0 W/m 10,4 C 11,2 C 4,8 km/h (1 Bft)
20.10.2019 07:45 11,3 C 11,3 C 95 % 1016,1 hPa 0,0 l/m 2,2 km/h (1 Bft) NO 52 0 min 0 W/m 10,5 C 11,3 C 4,8 km/h (1 Bft)
20.10.2019 07:40 11,4 C 11,4 C 95 % 1016,3 hPa 0,0 l/m 0,0 km/h (0 Bft) W 279 0 min 0 W/m 10,6 C 11,4 C 0,0 km/h (0 Bft)
20.10.2019 07:35 11,4 C 11,4 C 95 % 1016,2 hPa 0,0 l/m 0,0 km/h (0 Bft) W 279 0 min 0 W/m 10,6 C 11,4 C 0,0 km/h (0 Bft)
20.10.2019 07:30 11,5 C 11,5 C 95 % 1016,2 hPa 0,0 l/m 0,0 km/h (0 Bft) W 279 0 min 0 W/m 10,7 C 11,5 C 0,0 km/h (0 Bft)
20.10.2019 07:25 11,6 C 11,6 C 95 % 1016,2 hPa 0,0 l/m 0,5 km/h (0 Bft) W 279 0 min 0 W/m 10,8 C 11,6 C 3,2 km/h (1 Bft)
20.10.2019 07:20 11,6 C 11,6 C 95 % 1016,2 hPa 0,0 l/m 2,6 km/h (1 Bft) W 279 0 min 0 W/m 10,8 C 11,6 C 6,4 km/h (2 Bft)
20.10.2019 07:15 11,7 C 11,7 C 95 % 1015,9 hPa 0,0 l/m 0,9 km/h (0 Bft) W-NW 303 0 min 0 W/m 10,9 C 11,7 C 3,2 km/h (1 Bft)
20.10.2019 07:10 11,7 C 11,7 C 95 % 1015,9 hPa 0,0 l/m 2,1 km/h (1 Bft) W-NW 303 0 min 0 W/m 10,9 C 11,7 C 4,8 km/h (1 Bft)
20.10.2019 07:05 11,7 C 11,7 C 95 % 1015,8 hPa 0,0 l/m 2,0 km/h (1 Bft) SO 135 0 min 0 W/m 10,9 C 11,7 C 4,8 km/h (1 Bft)
20.10.2019 07:00 11,7 C 11,7 C 95 % 1015,9 hPa 0,0 l/m 1,8 km/h (1 Bft) SO 135 0 min 0 W/m 10,9 C 11,7 C 4,8 km/h (1 Bft)
20.10.2019 06:55 11,8 C 11,8 C 95 % 1016,1 hPa 0,0 l/m 0,0 km/h (0 Bft) S 172 0 min 0 W/m 11,0 C 11,8 C 0,0 km/h (0 Bft)
20.10.2019 06:50 11,8 C 11,8 C 95 % 1016,1 hPa 0,0 l/m 1,6 km/h (1 Bft) S 172 0 min 0 W/m 11,0 C 11,8 C 4,8 km/h (1 Bft)
20.10.2019 06:45 11,8 C 11,8 C 95 % 1015,9 hPa 0,0 l/m 1,3 km/h (1 Bft) S 171 0 min 0 W/m 11,0 C 11,8 C 4,8 km/h (1 Bft)
20.10.2019 06:40 11,8 C 11,8 C 95 % 1015,9 hPa 0,0 l/m 2,5 km/h (1 Bft) S 173 0 min 0 W/m 11,0 C 11,8 C 6,4 km/h (2 Bft)
20.10.2019 06:35 11,9 C 11,9 C 95 % 1015,9 hPa 0,0 l/m 1,2 km/h (1 Bft) S 186 0 min 0 W/m 11,1 C 11,9 C 3,2 km/h (1 Bft)
20.10.2019 06:30 11,9 C 11,9 C 95 % 1015,8 hPa 0,0 l/m 1,1 km/h (1 Bft) S 184 0 min 0 W/m 11,1 C 11,9 C 4,8 km/h (1 Bft)
20.10.2019 06:25 12,0 C 12,0 C 95 % 1015,9 hPa 0,0 l/m 2,6 km/h (1 Bft) S 184 0 min 0 W/m 11,2 C 12,0 C 4,8 km/h (1 Bft)
20.10.2019 06:20 12,1 C 12,1 C 95 % 1015,9 hPa 0,0 l/m 1,2 km/h (1 Bft) S 184 0 min 0 W/m 11,3 C 12,1 C 3,2 km/h (1 Bft)
20.10.2019 06:15 12,1 C 12,1 C 95 % 1015,9 hPa 0,0 l/m 3,4 km/h (1 Bft) S 184 0 min 0 W/m 11,3 C 12,1 C 8,0 km/h (2 Bft)
20.10.2019 06:10 12,2 C 12,2 C 95 % 1015,7 hPa 0,0 l/m 2,6 km/h (1 Bft) S-SO 165 0 min 0 W/m 11,4 C 12,2 C 6,4 km/h (2 Bft)
20.10.2019 06:05 12,3 C 12,3 C 95 % 1015,8 hPa 0,0 l/m 4,0 km/h (1 Bft) S 184 0 min 0 W/m 11,5 C 12,3 C 6,4 km/h (2 Bft)
20.10.2019 06:00 12,3 C 12,3 C 95 % 1015,7 hPa 0,0 l/m 3,4 km/h (1 Bft) S-SW 201 0 min 0 W/m 11,5 C 12,3 C 6,4 km/h (2 Bft)
20.10.2019 05:55 12,3 C 12,3 C 95 % 1015,5 hPa 0,0 l/m 3,0 km/h (1 Bft) S-SW 197 0 min 0 W/m 11,5 C 12,3 C 4,8 km/h (1 Bft)
20.10.2019 05:50 12,3 C 12,3 C 95 % 1015,6 hPa 0,0 l/m 3,9 km/h (1 Bft) S-SW 198 0 min 0 W/m 11,5 C 12,3 C 6,4 km/h (2 Bft)
20.10.2019 05:45 12,3 C 12,3 C 95 % 1015,6 hPa 0,0 l/m 3,3 km/h (1 Bft) S 182 0 min 0 W/m 11,5 C 12,3 C 6,4 km/h (2 Bft)
20.10.2019 05:40 12,3 C 12,3 C 95 % 1015,5 hPa 0,0 l/m 3,1 km/h (1 Bft) S-SW 204 0 min 0 W/m 11,5 C 12,3 C 6,4 km/h (2 Bft)
20.10.2019 05:35 12,3 C 12,3 C 95 % 1015,3 hPa 0,0 l/m 2,0 km/h (1 Bft) S-SW 211 0 min 0 W/m 11,5 C 12,3 C 4,8 km/h (1 Bft)
20.10.2019 05:30 12,4 C 12,4 C 95 % 1015,1 hPa 0,0 l/m 3,4 km/h (1 Bft) W-NW 298 0 min 0 W/m 11,6 C 12,4 C 8,0 km/h (2 Bft)
20.10.2019 05:25 12,4 C 12,4 C 95 % 1015,1 hPa 0,2 l/m 3,0 km/h (1 Bft) W 264 0 min 0 W/m 11,6 C 12,4 C 11,3 km/h (2 Bft)
20.10.2019 05:20 12,4 C 12,4 C 95 % 1015,0 hPa 0,0 l/m 2,4 km/h (1 Bft) SO 142 0 min 0 W/m 11,6 C 12,4 C 9,7 km/h (2 Bft)
20.10.2019 05:15 12,4 C 12,4 C 95 % 1014,9 hPa 0,0 l/m 3,2 km/h (1 Bft) S-SW 200 0 min 0 W/m 11,6 C 12,4 C 11,3 km/h (2 Bft)
20.10.2019 05:10 12,4 C 12,4 C 95 % 1014,7 hPa 0,0 l/m 3,6 km/h (1 Bft) SO 129 0 min 0 W/m 11,6 C 12,4 C 9,7 km/h (2 Bft)
20.10.2019 05:05 12,4 C 12,4 C 95 % 1014,7 hPa 0,0 l/m 2,5 km/h (1 Bft) O 80 0 min 0 W/m 11,6 C 12,4 C 6,4 km/h (2 Bft)
20.10.2019 05:00 12,4 C 12,4 C 95 % 1015,0 hPa 0,0 l/m 2,7 km/h (1 Bft) SW 219 0 min 0 W/m 11,6 C 12,4 C 6,4 km/h (2 Bft)
20.10.2019 04:55 12,4 C 12,4 C 95 % 1015,1 hPa 0,0 l/m 1,7 km/h (1 Bft) S-SW 196 0 min 0 W/m 11,6 C 12,4 C 4,8 km/h (1 Bft)
20.10.2019 04:50 12,4 C 12,4 C 95 % 1015,0 hPa 0,0 l/m 0,1 km/h (0 Bft) O-SO 105 0 min 0 W/m 11,6 C 12,4 C 1,6 km/h (1 Bft)
20.10.2019 04:45 12,4 C 12,4 C 95 % 1015,0 hPa 0,0 l/m 0,8 km/h (0 Bft) O-SO 105 0 min 0 W/m 11,6 C 12,4 C 4,8 km/h (1 Bft)
20.10.2019 04:40 12,4 C 12,4 C 95 % 1015,0 hPa 0,0 l/m 0,0 km/h (0 Bft) S-SW 203 0 min 0 W/m 11,6 C 12,4 C 0,0 km/h (0 Bft)
20.10.2019 04:35 12,5 C 12,5 C 96 % 1015,0 hPa 0,0 l/m 1,1 km/h (1 Bft) S-SW 203 0 min 0 W/m 11,9 C 12,5 C 4,8 km/h (1 Bft)
20.10.2019 04:30 12,5 C 12,5 C 96 % 1015,1 hPa 0,0 l/m 1,2 km/h (1 Bft) N 5 0 min 0 W/m 11,9 C 12,5 C 3,2 km/h (1 Bft)
20.10.2019 04:25 12,5 C 12,5 C 96 % 1015,2 hPa 0,0 l/m 0,4 km/h (0 Bft) N 5 0 min 0 W/m 11,9 C 12,5 C 3,2 km/h (1 Bft)
20.10.2019 04:20 12,5 C 12,5 C 96 % 1015,2 hPa 0,0 l/m 2,7 km/h (1 Bft) N 5 0 min 0 W/m 11,9 C 12,5 C 8,0 km/h (2 Bft)
20.10.2019 04:15 12,5 C 12,4 C 96 % 1015,3 hPa 0,0 l/m 4,9 km/h (1 Bft) W-NW 302 0 min 0 W/m 11,9 C 12,5 C 6,4 km/h (2 Bft)
20.10.2019 04:10 12,5 C 12,4 C 95 % 1015,4 hPa 0,0 l/m 2,6 km/h (1 Bft) W-NW 302 0 min 0 W/m 11,7 C 12,5 C 6,4 km/h (2 Bft)
20.10.2019 04:05 12,4 C 12,4 C 95 % 1015,3 hPa 0,0 l/m 0,6 km/h (0 Bft) W-SW 240 0 min 0 W/m 11,6 C 12,4 C 3,2 km/h (1 Bft)
20.10.2019 04:00 12,5 C 12,5 C 95 % 1015,2 hPa 0,0 l/m 0,8 km/h (0 Bft) O 88 0 min 0 W/m 11,7 C 12,5 C 3,2 km/h (1 Bft)
20.10.2019 03:55 12,5 C 12,5 C 95 % 1015,1 hPa 0,0 l/m 0,6 km/h (0 Bft) O 89 0 min 0 W/m 11,7 C 12,5 C 3,2 km/h (1 Bft)
20.10.2019 03:50 12,6 C 12,5 C 95 % 1015,4 hPa 0,0 l/m 0,8 km/h (0 Bft) O 88 0 min 0 W/m 11,8 C 12,6 C 3,2 km/h (1 Bft)
20.10.2019 03:45 12,6 C 12,6 C 95 % 1015,8 hPa 0,0 l/m 0,7 km/h (0 Bft) O 87 0 min 0 W/m 11,8 C 12,6 C 4,8 km/h (1 Bft)
20.10.2019 03:40 12,6 C 12,6 C 95 % 1015,7 hPa 0,0 l/m 2,2 km/h (1 Bft) O 81 0 min 0 W/m 11,8 C 12,6 C 4,8 km/h (1 Bft)
20.10.2019 03:35 12,6 C 12,6 C 95 % 1015,9 hPa 0,0 l/m 3,0 km/h (1 Bft) O 82 0 min 0 W/m 11,8 C 12,6 C 4,8 km/h (1 Bft)
20.10.2019 03:30 12,6 C 12,6 C 95 % 1016,1 hPa 0,0 l/m 2,6 km/h (1 Bft) O-NO 57 0 min 0 W/m 11,8 C 12,6 C 9,7 km/h (2 Bft)
20.10.2019 03:25 12,6 C 12,6 C 95 % 1016,3 hPa 0,0 l/m 2,3 km/h (1 Bft) NW 309 0 min 0 W/m 11,8 C 12,6 C 6,4 km/h (2 Bft)
20.10.2019 03:20 12,6 C 12,6 C 95 % 1016,2 hPa 0,0 l/m 1,0 km/h (0 Bft) W-NW 302 0 min 0 W/m 11,8 C 12,6 C 4,8 km/h (1 Bft)
20.10.2019 03:15 12,6 C 12,6 C 95 % 1016,1 hPa 0,0 l/m 2,3 km/h (1 Bft) W 281 0 min 0 W/m 11,8 C 12,6 C 4,8 km/h (1 Bft)
20.10.2019 03:10 12,6 C 12,6 C 95 % 1016,0 hPa 0,0 l/m 2,4 km/h (1 Bft) NW 317 0 min 0 W/m 11,8 C 12,6 C 4,8 km/h (1 Bft)
20.10.2019 03:05 12,6 C 12,6 C 95 % 1016,0 hPa 0,0 l/m 3,9 km/h (1 Bft) W-NW 302 0 min 0 W/m 11,8 C 12,6 C 8,0 km/h (2 Bft)
20.10.2019 03:00 12,6 C 12,6 C 95 % 1016,0 hPa 0,0 l/m 4,6 km/h (1 Bft) W-NW 297 0 min 0 W/m 11,8 C 12,6 C 6,4 km/h (2 Bft)
20.10.2019 02:55 12,7 C 12,7 C 95 % 1016,1 hPa 0,0 l/m 1,4 km/h (1 Bft) W-SW 242 0 min 0 W/m 11,9 C 12,7 C 4,8 km/h (1 Bft)
20.10.2019 02:50 12,7 C 12,7 C 95 % 1016,0 hPa 0,0 l/m 0,8 km/h (0 Bft) W-SW 241 0 min 0 W/m 11,9 C 12,7 C 3,2 km/h (1 Bft)
20.10.2019 02:45 12,7 C 12,7 C 95 % 1015,9 hPa 0,0 l/m 2,5 km/h (1 Bft) W-SW 250 0 min 0 W/m 11,9 C 12,7 C 4,8 km/h (1 Bft)
20.10.2019 02:40 12,7 C 12,7 C 95 % 1015,7 hPa 0,0 l/m 0,6 km/h (0 Bft) SO 124 0 min 0 W/m 11,9 C 12,7 C 4,8 km/h (1 Bft)
20.10.2019 02:35 12,7 C 12,7 C 95 % 1015,6 hPa 0,0 l/m 1,0 km/h (0 Bft) W-NW 303 0 min 0 W/m 11,9 C 12,7 C 4,8 km/h (1 Bft)
20.10.2019 02:30 12,8 C 12,8 C 95 % 1015,6 hPa 0,0 l/m 1,4 km/h (1 Bft) O 89 0 min 0 W/m 12,0 C 12,8 C 4,8 km/h (1 Bft)
20.10.2019 02:25 12,8 C 12,8 C 95 % 1015,8 hPa 0,0 l/m 0,5 km/h (0 Bft) O-NO 77 0 min 0 W/m 12,0 C 12,8 C 3,2 km/h (1 Bft)
20.10.2019 02:20 12,8 C 12,8 C 95 % 1016,0 hPa 0,0 l/m 1,6 km/h (1 Bft) O-NO 78 0 min 0 W/m 12,0 C 12,8 C 4,8 km/h (1 Bft)
20.10.2019 02:15 12,8 C 12,8 C 95 % 1016,2 hPa 0,0 l/m 1,6 km/h (1 Bft) O-SO 106 0 min 0 W/m 12,0 C 12,8 C 4,8 km/h (1 Bft)
20.10.2019 02:10 12,8 C 12,8 C 95 % 1016,5 hPa 0,0 l/m 0,9 km/h (0 Bft) N 5 0 min 0 W/m 12,0 C 12,8 C 3,2 km/h (1 Bft)
20.10.2019 02:05 12,8 C 12,8 C 95 % 1016,5 hPa 0,0 l/m 0,7 km/h (0 Bft) N 360 0 min 0 W/m 12,0 C 12,8 C 3,2 km/h (1 Bft)
20.10.2019 02:00 12,8 C 12,8 C 95 % 1016,4 hPa 0,0 l/m 0,0 km/h (0 Bft) O-NO 58 0 min 0 W/m 12,0 C 12,8 C 1,6 km/h (1 Bft)
20.10.2019 01:55 12,8 C 12,8 C 95 % 1016,3 hPa 0,0 l/m 0,9 km/h (0 Bft) O-NO 59 0 min 0 W/m 12,0 C 12,8 C 3,2 km/h (1 Bft)
20.10.2019 01:50 12,8 C 12,8 C 95 % 1016,3 hPa 0,0 l/m 1,2 km/h (1 Bft) NO 56 0 min 0 W/m 12,0 C 12,8 C 3,2 km/h (1 Bft)
20.10.2019 01:45 12,8 C 12,8 C 95 % 1016,2 hPa 0,0 l/m 0,4 km/h (0 Bft) O-NO 72 0 min 0 W/m 12,0 C 12,8 C 3,2 km/h (1 Bft)
20.10.2019 01:40 12,8 C 12,8 C 95 % 1016,3 hPa 0,2 l/m 1,4 km/h (1 Bft) O-NO 72 0 min 0 W/m 12,0 C 12,8 C 3,2 km/h (1 Bft)
20.10.2019 01:35 12,8 C 12,8 C 95 % 1016,2 hPa 0,0 l/m 1,7 km/h (1 Bft) O-NO 73 0 min 0 W/m 12,0 C 12,8 C 4,8 km/h (1 Bft)
20.10.2019 01:30 12,8 C 12,8 C 95 % 1016,4 hPa 0,0 l/m 2,3 km/h (1 Bft) NO 54 0 min 0 W/m 12,0 C 12,8 C 6,4 km/h (2 Bft)
20.10.2019 01:25 12,8 C 12,8 C 95 % 1016,5 hPa 0,2 l/m 1,6 km/h (1 Bft) O-NO 76 0 min 0 W/m 12,0 C 12,8 C 4,8 km/h (1 Bft)
20.10.2019 01:20 12,8 C 12,8 C 95 % 1016,7 hPa 0,0 l/m 1,6 km/h (1 Bft) S-SW 211 0 min 0 W/m 12,0 C 12,8 C 4,8 km/h (1 Bft)
20.10.2019 01:15 12,8 C 12,8 C 95 % 1016,8 hPa 0,0 l/m 1,6 km/h (1 Bft) W 270 0 min 0 W/m 12,0 C 12,8 C 4,8 km/h (1 Bft)
20.10.2019 01:10 12,8 C 12,8 C 95 % 1016,7 hPa 0,2 l/m 3,8 km/h (1 Bft) O-NO 75 0 min 0 W/m 12,0 C 12,8 C 8,0 km/h (2 Bft)
20.10.2019 01:05 12,8 C 12,8 C 95 % 1016,8 hPa 0,0 l/m 2,5 km/h (1 Bft) N-NO 26 0 min 0 W/m 12,0 C 12,8 C 4,8 km/h (1 Bft)
20.10.2019 01:00 12,8 C 12,8 C 95 % 1016,5 hPa 0,0 l/m 0,4 km/h (0 Bft) N 355 0 min 0 W/m 12,0 C 12,8 C 1,6 km/h (1 Bft)
20.10.2019 00:55 12,8 C 12,8 C 95 % 1016,7 hPa 0,0 l/m 2,2 km/h (1 Bft) N 355 0 min 0 W/m 12,0 C 12,8 C 6,4 km/h (2 Bft)
20.10.2019 00:50 12,8 C 12,8 C 95 % 1016,7 hPa 0,2 l/m 1,3 km/h (1 Bft) O-NO 71 0 min 0 W/m 12,0 C 12,8 C 6,4 km/h (2 Bft)
20.10.2019 00:45 12,8 C 12,8 C 95 % 1016,7 hPa 0,2 l/m 0,6 km/h (0 Bft) W-NW 295 0 min 0 W/m 12,0 C 12,8 C 4,8 km/h (1 Bft)
20.10.2019 00:40 12,8 C 12,8 C 95 % 1016,9 hPa 0,0 l/m 0,7 km/h (0 Bft) W-NW 288 0 min 0 W/m 12,0 C 12,8 C 4,8 km/h (1 Bft)
20.10.2019 00:35 12,8 C 12,8 C 95 % 1016,8 hPa 0,0 l/m 0,3 km/h (0 Bft) O-NO 77 0 min 0 W/m 12,0 C 12,8 C 1,6 km/h (1 Bft)
20.10.2019 00:30 12,8 C 12,8 C 95 % 1016,8 hPa 0,0 l/m 1,6 km/h (1 Bft) O-NO 78 0 min 0 W/m 12,0 C 12,8 C 4,8 km/h (1 Bft)
20.10.2019 00:25 12,8 C 12,8 C 95 % 1016,9 hPa 0,0 l/m 0,9 km/h (0 Bft) O-SO 105 0 min 0 W/m 12,0 C 12,8 C 3,2 km/h (1 Bft)
20.10.2019 00:20 12,8 C 12,8 C 95 % 1017,0 hPa 0,0 l/m 2,4 km/h (1 Bft) O 90 0 min 0 W/m 12,0 C 12,8 C 11,3 km/h (2 Bft)
20.10.2019 00:15 12,8 C 12,8 C 95 % 1017,0 hPa 0,2 l/m 2,1 km/h (1 Bft) SO 141 0 min 0 W/m 12,0 C 12,8 C 9,7 km/h (2 Bft)
20.10.2019 00:10 12,8 C 12,8 C 95 % 1017,0 hPa 0,2 l/m 2,8 km/h (1 Bft) O-SO 112 0 min 0 W/m 12,0 C 12,8 C 8,0 km/h (2 Bft)
20.10.2019 00:05 12,9 C 12,9 C 95 % 1017,0 hPa 0,0 l/m 2,5 km/h (1 Bft) O-SO 121 0 min 0 W/m 12,1 C 12,9 C 6,4 km/h (2 Bft)
20.10.2019 00:00 12,9 C 12,9 C 95 % 1016,9 hPa 0,0 l/m 4,9 km/h (1 Bft) O-NO 67 0 min 0 W/m 12,1 C 12,9 C 11,3 km/h (2 Bft)
_ Min-Zeit 08:05 08:05 14:15 14:20 - 02:00 - - - - 08:05 08:05 04:40
Minimum _ 11,1 C 11,1 C 76 % 1013,7 hPa - 0,0 km/h (0 Bft) - - - - 10,3 C 11,1 C 0,0 km/h (0 Bft)
_ Max-Zeit 15:20 15:25 04:15 00:05 00:10 16:20 - - 00:00 00:00 15:55 15:20 16:20
Maximum _ 20,6 C 20,6 C 96 % 1017,0 hPa 0,2 l/m 8,1 km/h
NW (2 Bft)
- - 0 min 0 W/m 16,5 C 20,6 C 14,5 km/h
W-NW (3 Bft)
Durchschnitt _ 14,2 C 14,2 C 91 % 1015,5 hPa #1,6 l/m 2,3 km/h (1 Bft) S - #0 min. 0 W/m 12,7 C 14,2 C 5,5 km/h (1 Bft)